GW0980 Weather Reports


Display with metric or nautical units.
time (UTC)temp
F
wind
direction
speed
MPH
gust
MPH
rain 1hr
in
rain 24hr
in
rain mn
in
humidity
%
barometer
mb
20260904041543 54 147 0.0 2.0 0.00 0.55 0.55 95 1009.5
20260904040100 54 94 0.0 2.0 0.00 0.55 0.55 95 1009.5
20260904034553 54 111 0.0 4.0 0.00 0.55 0.55 95 1009.4
20260904033051 54 0 0.0 3.0 0.01 0.55 0.55 95 1009.2
20260904031548 54 0 0.0 5.0 0.01 0.55 0.55 94 1009.2
20260904030057 54 350 0.0 2.0 0.01 0.55 0.55 94 1009.2
20260904024556 55 120 0.0 2.0 0.02 0.55 0.55 94 1009.2
20260904023057 55 0 0.0 2.0 0.03 0.53 0.53 94 1009.2
20260904021546 55 0 1.0 3.0 0.03 0.53 0.53 93 1009.3
20260904020054 55 88 1.0 6.0 0.02 0.52 0.52 93 1009.2
20260904014600 55 72 1.0 4.0 0.03 0.52 0.52 92 1009.2
20260904013050 56 107 1.0 6.0 0.00 0.50 0.50 91 1009.1
20260904011554 56 63 0.0 3.0 0.00 0.50 0.50 92 1009.1
20260904010052 56 91 0.0 2.0 0.01 0.50 0.50 92 1009.2
20260904004546 57 57 0.0 5.0 0.03 0.49 0.49 92 1009.1
20260904003049 57 39 0.0 3.0 0.04 0.49 0.49 92 1009.1
20260904001549 57 86 0.0 3.0 0.05 0.49 0.49 92 1009.2
20260904000104 57 72 0.0 1.0 0.04 0.48 0.48 90 1009.3
20260903234550 57 86 0.0 3.0 0.01 0.45 0.45 87 1009.4
20260903233054 58 132 0.0 3.0 0.00 0.44 0.44 85 1009.3
20260903231552 58 0 0.0 6.0 0.00 0.44 0.44 88 1009.3
20260903230053 58 330 1.0 3.0 0.00 0.44 0.44 88 1009.2
20260903224608 58 110 0.0 4.0 0.00 0.44 0.44 87 1009.3
20260903223047 58 112 1.0 6.0 0.00 0.44 0.44 89 1009.4
20260903221552 58 30 0.0 3.0 0.00 0.44 0.44 92 1009.5
20260903220049 57 0 0.0 6.0 0.00 0.44 0.44 95 1009.6
20260903214613 56 77 2.0 6.0 0.00 0.44 0.44 96 1009.6
20260903213050 54 79 0.0 5.0 0.00 0.44 0.44 96 1009.5
20260903211551 54 81 0.0 2.0 0.00 0.44 0.44 95 1009.5
20260903210121 55 0 0.0 3.0 0.00 0.44 0.44 95 1009.4
20260903204551 55 108 1.0 3.0 0.00 0.45 0.44 95 1009.5
20260903203107 55 103 0.0 3.0 0.00 0.45 0.44 96 1009.5
20260903201550 56 103 0.0 2.0 0.00 0.45 0.44 96 1009.5
20260903200052 56 105 0.0 1.0 0.00 0.45 0.44 96 1009.5
20260903194551 56 0 0.0 3.0 0.01 0.46 0.44 97 1009.7
20260903193049 56 0 0.0 2.0 0.03 0.46 0.44 97 1009.5
20260903191549 56 70 0.0 1.0 0.04 0.46 0.44 97 1009.9
20260903190054 55 0 0.0 2.0 0.05 0.46 0.44 96 1009.9
20260903184552 55 109 0.0 2.0 0.04 0.46 0.42 96 1009.8
20260903183050 55 0 0.0 2.0 0.03 0.44 0.40 96 1009.8
20260903181547 55 0 0.0 1.0 0.03 0.43 0.39 96 1009.7
20260903180056 55 168 0.0 1.0 0.04 0.42 0.38 96 1009.7
20260903174551 55 111 0.0 2.0 0.03 0.45 0.37 96 1009.5
20260903173051 56 0 0.0 4.0 0.03 0.45 0.37 96 1009.5
20260903171547 56 69 0.0 2.0 0.02 0.44 0.36 96 1009.5
20260903170051 56 0 0.0 3.0 0.00 0.41 0.33 97 1009.4
20260903164550 56 75 0.0 2.0 0.00 0.44 0.33 97 1009.5
20260903163045 55 107 0.0 4.0 0.00 0.44 0.33 97 1009.7
20260903161554 55 0 1.0 4.0 0.01 0.44 0.33 97 1009.7
20260903160052 54 0 0.0 1.0 0.02 0.44 0.33 96 1010.0
20260903154604 53 0 0.0 1.0 0.02 0.44 0.33 96 1010.2
20260903153054 53 146 0.0 1.0 0.03 0.44 0.33 96 1010.1
20260903151548 53 0 0.0 1.0 0.03 0.44 0.32 96 1010.3
20260903150056 53 0 0.0 1.0 0.06 0.43 0.31 96 1010.1
20260903144559 53 0 0.0 0.0 0.08 0.42 0.30 96 1010.1
20260903143103 53 0 0.0 1.0 0.11 0.41 0.29 96 1010.0
20260903141600 53 0 0.0 1.0 0.11 0.40 0.28 96 1009.7
20260903140050 53 64 0.0 3.0 0.07 0.37 0.25 96 1009.6
20260903134558 53 0 0.0 1.0 0.06 0.33 0.22 96 1009.5
20260903133051 52 0 0.0 0.0 0.03 0.30 0.18 96 1009.5
20260903131550 53 0 0.0 1.0 0.02 0.29 0.17 96 1009.4
20260903130047 53 0 0.0 1.0 0.02 0.29 0.17 96 1009.2
20260903124545 53 0 0.0 0.0 0.02 0.27 0.15 96 1009.4
20260903123050 53 0 0.0 0.0 0.07 0.26 0.14 96 1009.4
20260903121547 52 0 0.0 1.0 0.07 0.26 0.14 95 1009.4
20260903120048 52 0 0.0 1.0 0.11 0.26 0.14 95 1009.6
20260903114550 52 0 0.0 0.0 0.09 0.25 0.13 95 1009.8
20260903113051 52 0 0.0 0.0 0.05 0.19 0.07 95 1009.7
20260903111547 52 0 0.0 0.0 0.05 0.18 0.07 95 1009.6
20260903110056 52 0 0.0 0.0 0.02 0.15 0.03 95 1009.5
20260903104555 52 0 0.0 0.0 0.03 0.15 0.03 95 1009.6
20260903103054 52 0 0.0 0.0 0.02 0.14 0.02 95 1009.5
20260903101601 52 0 0.0 0.0 0.01 0.13 0.01 95 1009.5
20260903100050 51 0 0.0 0.0 0.01 0.13 0.01 94 1009.6
20260903094546 51 0 0.0 1.0 0.00 0.11 0.00 94 1009.7
20260903093105 52 0 0.0 1.0 0.00 0.11 0.00 94 1009.6
20260903091549 52 293 0.0 1.0 0.00 0.11 0.00 94 1009.7
20260903090207 52 0 0.0 0.0 0.00 0.11 0.00 94 1009.8
20260903084550 52 0 0.0 0.0 0.00 0.11 0.00 94 1009.7
20260903083051 52 0 0.0 0.0 0.00 0.11 0.00 94 1009.8
20260903081550 52 0 0.0 1.0 0.00 0.11 0.00 94 1009.8
20260903080049 52 0 0.0 0.0 0.00 0.11 0.00 93 1009.9
20260903074552 52 0 0.0 1.0 0.00 0.11 0.00 93 1009.9
20260903073050 52 0 0.0 0.0 0.00 0.11 0.00 93 1009.9
20260903071553 52 0 0.0 0.0 0.00 0.11 0.00 93 1009.9
20260903070052 53 0 0.0 0.0 0.00 0.11 0.00 93 1009.8
20260903064549 53 0 0.0 0.0 0.00 0.11 0.11 92 1009.7
20260903063111 53 0 0.0 1.0 0.00 0.11 0.11 92 1009.7
20260903061553 53 0 0.0 0.0 0.00 0.11 0.11 92 1009.8
20260903060051 53 0 0.0 0.0 0.00 0.11 0.11 91 1009.8
20260903054548 53 0 0.0 0.0 0.00 0.11 0.11 91 1009.8
20260903053050 53 0 0.0 0.0 0.00 0.11 0.11 91 1009.8
20260903051550 53 0 0.0 1.0 0.00 0.11 0.11 90 1009.8
20260903050109 53 0 0.0 0.0 0.00 0.11 0.11 90 1009.7
20260903044551 54 0 0.0 0.0 0.00 0.11 0.11 90 1009.8
20260903043051 54 0 0.0 0.0 0.00 0.11 0.11 90 1009.7